Location: Baumgarten
(49.0970°N, 12.7493°E)
Time: 02:18:17
(UTC+00:00)

Cosmos 1603 - Pass Details

Date: 05 July 2020
Orbit: 830 x 861 km, 71.0° (Epoch: 04 August)

Event Time Altitude Azimuth Distance (km) Brightness Sun altitude
Exits shadow 23:36:12 30° 168° (SSE) 1,479 4.4 -18.1°
Maximum altitude 23:38:42 50° 110° (ESE) 1,073 4.1 -18.0°
Drops below altitude 10° 23:44:11 10° 37° (NE) 2,493 7.1 -17.9°
Sets 23:46:43 0° 32° (NNE) 3,437 8.1 -17.9°
